Tracking 25734 objects as of 28-May-2022
HD Live streaming from Space Station
objects crossing your sky now

CZ-2 DEB

Track CZ-2 DEB now!
10-day predictions


NORAD ID: 38657
Int'l Code: 2009-072E
Perigee: 1,082.0 km
Apogee: 1,282.9 km
Inclination: 100.3 °
Period: 108.9 minutes
Semi major axis: 7553 km
RCS: 0.0014 m2 (small)
Launch date: December 15, 2009
Source: People's Republic of China (PRC)
Launch site: Taiyaun Space Center, China (TSC)

Note: This is SATELLITE DEBRIS
aabbcc
Your satellite tracking list
Your tracking list is empty




NASA's NSSDC Master Catalog

Two Line Element Set (TLE):
1 38657U 09072E   22147.48870580  .00000139  00000-0  42001-3 0  9996
2 38657 100.3019 240.3442 0132976 238.5624 184.7688 13.22471026596901
Source of the keplerian elements: AFSPC